Tracking 20942 objects as of 11-Jul-2020
HD Live streaming from Space Station
objects crossing your sky now

THOR ABLESTAR DEB

Track THOR ABLESTAR DEB now!
10-day predictions


NORAD ID: 350
Int'l Code: 1961-015DQ
Perigee: 736.9 km
Apogee: 923.1 km
Inclination: 66.9 °
Period: 101.4 minutes
Semi major axis: 7200 km
RCS: 0.1129 m2 (medium)
Launch date: June 29, 1961
Source: United States (US)
Launch site: AIR FORCE EASTERN TEST RANGE (AFETR)

Note: This is SATELLITE DEBRIS
aabbcc
Your satellite tracking list
Your tracking list is empty




NASA's NSSDC Master Catalog

Two Line Element Set (TLE):
1   350U 61015DQ  20192.90037477 +.00000083 +00000-0 +70092-4 0  9995
2   350 066.9134 013.2842 0129288 347.6113 012.1811 14.20740472054930
Source of the keplerian elements: AFSPC